Regional Weather Roundup
Issued by NWS

Home | Current Version | Previous Version | Graphics & Text | Print | Product List | Glossary On
Versions: 1 2 3 4 5 6 7 8 9 10 11 12 13 14 15 16 17 18 19 20 21 22 23 24 25 26 27 28 29 30 31 32 33 34 35 36 37 38 39 40 41 42 43 44 45 46 47 48 49 50
000
ASUS43 KLOT 231303
RWRIL

ILLINOIS REGIONAL WEATHER ROUNDUP
NATIONAL WEATHER SERVICE CHICAGO/ROMEOVILLE IL
800 AM CDT MON APR 23 2018

NOTE: "FAIR" INDICATES FEW OR NO CLOUDS BELOW 12,000 FEET WITH NO
SIGNIFICANT WEATHER AND/OR OBSTRUCTIONS TO VISIBILITY.

* THESE STATIONS ARE NOT UNDER NWS QUALITY CONTROL. THEY ALSO MAY NOT
  REPORT WEATHER SUCH AS PRECIPITATION OR FOG.

ILZ001-002-007-009-015-016-024-231400-
NORTHWEST ILLINOIS

CITY           SKY/WX    TMP DP  RH WIND       PRES   REMARKS
MOLINE         FAIR      50  28  42 E9        30.19S
STERLING*      FAIR      49  27  42 NE10      30.21S
SAVANNA*       FAIR      48  28  45 NE9       30.23S
$$

ILZ003-004-008-010-011-017-018-231400-
NORTH CENTRAL ILLINOIS

CITY           SKY/WX    TMP DP  RH WIND       PRES   REMARKS
ROCKFORD       CLOUDY    48  24  39 NE10      30.25S
FREEPORT*      FAIR      45  29  54 NE9       30.25F
ROCHELLE*      FAIR      44  30  59 NE14      30.22S
DE KALB*       FAIR      46  30  53 NE13      30.22S
PERU*          FAIR      50  29  44 NE14      30.18F
$$

ILZ005-006-012>014-019>023-231400-
NORTHEAST ILLINOIS

CITY           SKY/WX    TMP DP  RH WIND       PRES   REMARKS
CHICAGO-OHARE  CLOUDY    47  28  47 NE13      30.21S
CHICAGO-MIDWAY CLOUDY    50  29  44 NE9       30.21S
AURORA         FAIR      47  28  47 NE14      30.20R
LANSING*       FAIR      47  33  57 NE9       30.19F
JOLIET*        FAIR      49  28  45 NE10      30.18F
WAUKEGAN       FAIR      47  30  51 NE9       30.24S
DUPAGE AIRPORT FAIR      47  29  49 NE9       30.20S
KANKAKEE*      FAIR      46  30  52 NE10      30.17R
WHEELING       FAIR      48  28  46 NE9       30.25R
MORRIS*        FAIR      46  29  52 NE7       30.17F
ROMEOVILLE*    FAIR      48  28  47 NE15      30.18F
NORTHERLY ISL    N/A     44  32  62 NW8         N/A
$$

LMZ740>746-231400-
SOUTHERN LAKE MICHIGAN

STATION/POSITION SKY/WX   TEMP    WIND        PRES    VSBY  WAVE
                          AIR SEA DIR/SP/G                  HT/PER
                          (F)     (DEG/KT/KT) (MB)    (MI)  (FT/S)
HARRISON CRIB              42     360/  9/ 11   N/A
BURNHAM HARBOR             44     360/  8/ 11   N/A
CALUMET HARBOR             42     360/  9/ 13 1022.4F
BURNS HARBOR               43      60/ 10/ 11 1022.7F
MICHIGAN CITY              42      30/ 12/ 12   N/A
$$

ILZ025>027-034>036-040-047-049-050-058-095>099-231400-
WEST-CENTRAL ILLINOIS

CITY           SKY/WX    TMP DP  RH WIND       PRES   REMARKS
QUINCY         MOSUNNY   50  33  52 NE14      30.10R
GALESBURG*     FAIR      50  32  50 NE13      30.17S
MACOMB*        CLOUDY    48  30  50 NE16      30.16S
JACKSONVILLE*  CLOUDY    50  31  47 NE14      30.08S
PITTSFIELD*    CLOUDY    52  32  46 N9        30.09S
$$

ILZ028>032-037-038-041>044-048-051>054-059>061-231400-
CENTRAL ILLINOIS

CITY           SKY/WX    TMP DP  RH WIND       PRES   REMARKS
PONTIAC        FAIR      46  30  53 NE15      30.15S
BLOOMINGTON    FAIR      47  29  49 NE17      30.12S
DECATUR        PTSUNNY   51  31  46 E14       30.08R
PEORIA         FAIR      49  27  42 NE12      30.14S
LACON*         FAIR      47  27  45 NE8       30.16S
LINCOLN*       CLOUDY    49  32  52 NE12      30.10S
SPRINGFIELD    FAIR      52  32  46 NE12      30.08S
TAYLORVILLE    DRIZZLE   50  33  53 E13G21    30.06R
$$

ILZ033-039-045-046-055>057-062-063-231400-
EAST-CENTRAL ILLINOIS

CITY           SKY/WX    TMP DP  RH WIND       PRES   REMARKS
CHAMPAIGN      FAIR      49  30  48 NE16      30.10R
DANVILLE*      CLOUDY    49  32  51 E10       30.09S
RANTOUL*       FAIR      49  32  52 NE10      30.11S
MATTOON        LGT RAIN  47  39  74 NE13      30.06R
PARIS*         LGT RAIN  49  37  65 NE8       30.10R
$$

ILZ079-100>102-231400-
SOUTHWEST ILLINOIS

CITY           SKY/WX    TMP DP  RH WIND       PRES   REMARKS
ALTON          CLOUDY    48  45  87 NE12      30.01S
BELLEVILLE     DRIZZLE   49  46  91 NE12G21   29.96S
CAHOKIA*       LGT RAIN  48  45  89 N16       29.98S FOG
SPARTA*        RAIN      49  49 100 NE18G25   29.93S
$$

ILZ064>066-069>071-074>076-080>082-084>086-088>090-092>094-231400-
SOUTH-CENTRAL ILLINOIS

CITY           SKY/WX    TMP DP  RH WIND       PRES   REMARKS
CARBONDALE     CLOUDY    51  50  96 NE16G26   29.86S FOG
CAIRO*         LGT RAIN  57  56  99 SE12      29.82R
EFFINGHAM*     LGT RAIN  48  47  96 NE7       30.04S
MARION         LGT RAIN  52  52 100 NE12      29.88R
MT. VERNON       N/A     50  49  96 NE16      29.95S
CENTRALIA*     CLOUDY    49  49  98 NE13G21   29.96S
SALEM*         DRIZZLE   50  47  92 NE10G18   29.98S
METROPOLIS*    DRIZZLE   58  57  97 E5        29.86R
$$

ILZ067-068-072-073-078-083-087-091-231400-
SOUTHEAST ILLINOIS

CITY           SKY/WX    TMP DP  RH WIND       PRES   REMARKS
LAWRENCEVILLE  LGT RAIN  50  49  96 NE16      30.02F FOG
FLORA*         LGT RAIN  50  47  92 NE13G18   30.00R
FAIRFIELD*     CLOUDY    51  50  97 NE13      29.96S
HARRISBURG*    LGT RAIN  54  54  98 E16G24    29.91R
ROBINSON*      RAIN      48  47  95 NE9       30.06S
CARMI*         CLOUDY    53  52  95 NE20      29.94R
$$

ABBREVIATIONS USED IN REMARKS
   TC - TEMPERATURE IN CELSIUS
  WCI - WIND CHILL INDEX
   HX - HEAT INDEX
  VSB - VISIBILITY
$$





USA.gov is the U.S. government's official web portal to all federal, state and local government web resources and services.